View from above orbital plane
|
View from above satellite
|
Ground track
|
The orbit data is extracted from the following two-line orbital elements,
1 15369U 84111A 21061.72678752 .00001104 00000-0 54140-4 0 9997
2 15369 82.5263 228.6117 0016076 234.0895 125.8847 15.16988656985721
Epoch (UTC): | 02 March 2021 17:26:34 |
Eccentricity: | 0.0016076 |
inclination: | 82.5263° |
perigee height: | 504 km |
apogee height: | 526 km |
right ascension of ascending node: | 228.6117° |
argument of perigee: | 234.0895° |
revolutions per day: | 15.16988656 |
mean anomaly at epoch: | 125.8847° |
orbit number at epoch: | 98572 |
The dashed part of the orbit path shows where the satellite is in the earth's shadow,
|
|